Pitt Meadows, British Columbia

10:42 PM PDT on April 24, 2017 (GMT -0700)
Pitt Meadows

Weather History for CWMM - October, 2012

Change the Weather History Date:

Thursday, October 18, 2012

  Actual Average Record
Temperature  
Mean Temperature 50 °F -  
Max Temperature 52 °F - - ()
Min Temperature 47 °F - - ()
Degree Days  
Heating Degree Days 16    
Moisture  
Dew Point 46 °F    
Average Humidity 89    
Maximum Humidity 96    
Minimum Humidity 71    
Precipitation  
Precipitation 1.10 in - - ()
Sea Level Pressure  
Sea Level Pressure 30.01 in    
Wind  
Wind Speed 2 mph ()    
Max Wind Speed 12 mph    
Max Gust Speed 18 mph    
T = Trace of Precipitation, MM = Missing Value Source: Averaged Metar Reports

Daily Weather History Graph

Daily Weather History Graph

Search for Another Location

Airport or City:

Trip Planner

Search our weather history database for the weather conditions in past years. The results will help you decide how hot, cold, wet, or windy it might be!

Date:

Astronomy

Oct. 18, 2012 Rise Set
Actual Time 7:37 AM PDT 6:13 PM PDT
Civil Twilight 7:04 AM PDT 6:45 PM PDT
Nautical Twilight 6:27 AM PDT 7:22 PM PDT
Astronomical Twilight 5:51 AM PDT 7:59 PM PDT
Moon 11:44 AM PDT (10/18) 8:33 PM PDT (10/18)
Length of Visible Light 11h 40m
Length of Day
10h 36m
Waxing Crescent, 15% of the Moon is Illuminated
Oct 18
Waxing Crescent
Oct 21
First Quarter
Oct 29
Full
Nov 6
Last Quarter
Nov 13
New

Hourly Weather History & Observations

Time (PDT) Temp. Dew Point Humidity Pressure Visibility Wind Dir Wind Speed Gust Speed Precip Events Conditions
12:00 AM 49.1 °F 45.7 °F 88% 30.24 in - Calm Calm - N/A   Unknown
1:00 AM 48.7 °F 45.3 °F 88% 30.24 in - Calm Calm - N/A   Unknown
2:00 AM 48.2 °F 45.5 °F 90% 30.24 in - Calm Calm - N/A   Unknown
3:00 AM 47.8 °F 45.5 °F 92% 30.23 in - Calm Calm - N/A   Unknown
4:00 AM 48.4 °F 44.6 °F 87% 30.21 in - Calm Calm - N/A   Unknown
5:00 AM 49 °F 45 °F 82% 30.19 in - West 1.2 mph - -  
5:00 AM 48.6 °F 45.1 °F 88% 30.19 in - West 1.2 mph - N/A   Unknown
6:00 AM 47.8 °F 45.5 °F 92% 30.16 in - East 2.3 mph - N/A   Unknown
7:00 AM 48.9 °F 44.1 °F 83% 30.14 in - North 1.2 mph - N/A   Unknown
8:00 AM 49.1 °F 44.2 °F 83% 30.12 in - Calm Calm - N/A   Unknown
9:00 AM 49.6 °F 45.3 °F 85% 30.09 in - East 1.2 mph - N/A   Unknown
10:00 AM 50.9 °F 44.6 °F 79% 30.06 in - East 2.3 mph - N/A   Unknown
11:00 AM 51 °F 46 °F 78% 30.05 in - West 1.2 mph - -  
11:00 AM 51.3 °F 46.2 °F 83% 30.05 in - West 1.2 mph - N/A   Unknown
1:00 PM 52.5 °F 43.3 °F 71% 29.99 in - NNW 4.6 mph - N/A   Unknown
2:00 PM 50.0 °F 47.1 °F 90% 29.97 in - NNE 9.2 mph - 0.02 in   Unknown
3:00 PM 48.7 °F 47.1 °F 94% 29.94 in - NNE 9.2 mph - 0.11 in   Unknown
5:00 PM 49 °F 47 °F 92% 29.87 in - NNE 11.5 mph - -  
5:00 PM 48.7 °F 47.3 °F 95% 29.87 in - NNE 11.5 mph 18.4 mph 0.14 in   Unknown
6:00 PM 48.9 °F 47.7 °F 95% 29.82 in - North 5.8 mph - 0.10 in   Unknown
7:00 PM 49.5 °F 48.2 °F 95% 29.78 in - NNE 3.5 mph - 0.12 in   Unknown
8:00 PM 49.3 °F 48.2 °F 96% 29.80 in - NNW 1.2 mph - 0.13 in   Unknown
9:00 PM 49.5 °F 48.4 °F 96% 29.78 in - NNE 3.5 mph - 0.20 in   Unknown
10:00 PM 49.8 °F 48.7 °F 96% 29.76 in - North 4.6 mph - 0.24 in   Unknown
11:00 PM 50 °F 49 °F 94% 29.77 in - West 1.2 mph - -  
11:00 PM 49.8 °F 48.7 °F 96% 29.77 in - West 1.2 mph - 0.29 in   Unknown